TimeCST,TemperatureF,Dew PointF,Humidity,Sea Level PressureIn,VisibilityMPH,Wind Direction,Wind SpeedMPH,Gust SpeedMPH,PrecipitationIn,Events,Conditions,WindDirDegrees,DateUTC
12:15 AM,-5.8,-9.4,84,30.59,10.0,West,11.5,-,N/A,,Clear,280,2014-02-06 06:15:00
12:35 AM,-5.8,-13.0,71,30.59,10.0,West,13.8,-,N/A,,Clear,280,2014-02-06 06:35:00
12:55 AM,-5.8,-9.4,84,30.59,10.0,West,12.7,-,N/A,,Clear,280,2014-02-06 06:55:00
1:15 AM,-5.8,-14.8,65,30.58,10.0,West,12.7,-,N/A,,Clear,280,2014-02-06 07:15:00
1:35 AM,-5.8,-9.4,84,30.57,10.0,West,10.4,-,N/A,,Clear,270,2014-02-06 07:35:00
1:55 AM,-5.8,-14.8,65,30.57,10.0,WNW,11.5,-,N/A,,Clear,290,2014-02-06 07:55:00
2:15 AM,-5.8,-7.6,92,30.57,10.0,WNW,9.2,-,N/A,,Clear,290,2014-02-06 08:15:00
2:35 AM,-7.6,-14.8,71,30.57,10.0,WNW,9.2,-,N/A,,Clear,290,2014-02-06 08:35:00
2:55 AM,-7.6,-9.4,92,30.57,10.0,WNW,8.1,-,N/A,,Clear,290,2014-02-06 08:55:00
3:15 AM,-7.6,-14.8,71,30.56,10.0,WNW,8.1,-,N/A,,Clear,290,2014-02-06 09:15:00
3:35 AM,-7.6,-9.4,92,30.55,10.0,West,9.2,-,N/A,,Clear,270,2014-02-06 09:35:00
3:55 AM,-7.6,-14.8,71,30.55,10.0,West,8.1,-,N/A,,Clear,260,2014-02-06 09:55:00
4:15 AM,-7.6,-13.0,77,30.55,10.0,West,8.1,-,N/A,,Clear,270,2014-02-06 10:15:00
4:35 AM,-7.6,-13.0,77,30.55,10.0,West,9.2,-,N/A,,Clear,270,2014-02-06 10:35:00
4:55 AM,-7.6,-11.2,84,30.55,10.0,West,8.1,-,N/A,,Clear,260,2014-02-06 10:55:00
5:15 AM,-7.6,-14.8,71,30.55,10.0,West,5.8,-,N/A,,Clear,260,2014-02-06 11:15:00
5:35 AM,-7.6,-11.2,84,30.55,10.0,West,8.1,-,N/A,,Clear,270,2014-02-06 11:35:00
5:55 AM,-7.6,-11.2,84,30.55,10.0,West,10.4,-,N/A,,Clear,260,2014-02-06 11:55:00
6:15 AM,-7.6,-14.8,71,30.54,10.0,West,10.4,-,N/A,,Clear,270,2014-02-06 12:15:00
6:35 AM,-7.6,-11.2,84,30.54,10.0,West,10.4,-,N/A,,Clear,270,2014-02-06 12:35:00
6:55 AM,-7.6,-14.8,71,30.54,10.0,West,10.4,-,N/A,,Clear,270,2014-02-06 12:55:00
7:15 AM,-7.6,-13.0,77,30.55,10.0,WSW,11.5,-,N/A,,Clear,250,2014-02-06 13:15:00
7:35 AM,-9.4,-13.0,84,30.55,10.0,WSW,10.4,-,N/A,,Clear,250,2014-02-06 13:35:00
7:55 AM,-7.6,-14.8,71,30.55,10.0,West,9.2,-,N/A,,Clear,260,2014-02-06 13:55:00
8:15 AM,-7.6,-11.2,84,30.55,10.0,West,10.4,-,N/A,,Clear,260,2014-02-06 14:15:00
8:35 AM,-7.6,-13.0,77,30.55,10.0,West,10.4,-,N/A,,Clear,260,2014-02-06 14:35:00
8:55 AM,-5.8,-13.0,71,30.54,10.0,West,15.0,-,N/A,,Clear,270,2014-02-06 14:55:00
9:15 AM,-5.8,-9.4,84,30.54,10.0,West,13.8,-,N/A,,Clear,270,2014-02-06 15:15:00
9:35 AM,-5.8,-11.2,77,30.54,10.0,West,13.8,17.3,N/A,,Clear,280,2014-02-06 15:35:00
9:55 AM,-4.0,-9.4,78,30.53,10.0,West,15.0,-,N/A,,Clear,270,2014-02-06 15:55:00
10:15 AM,-2.2,-7.6,78,30.53,10.0,West,15.0,19.6,N/A,,Clear,260,2014-02-06 16:15:00
10:35 AM,-2.2,-11.2,66,30.53,10.0,West,13.8,-,N/A,,Clear,260,2014-02-06 16:35:00
10:55 AM,-0.4,-5.8,78,30.53,10.0,West,13.8,-,N/A,,Clear,260,2014-02-06 16:55:00
11:15 AM,-0.4,-11.2,60,30.53,10.0,West,15.0,-,N/A,,Clear,260,2014-02-06 17:15:00
11:35 AM,1.4,-7.6,66,30.51,10.0,West,16.1,-,N/A,,Clear,270,2014-02-06 17:35:00
11:55 AM,1.4,-7.6,66,30.50,10.0,West,12.7,-,N/A,,Clear,270,2014-02-06 17:55:00
12:15 PM,1.4,-7.6,66,30.49,10.0,West,17.3,-,N/A,,Clear,280,2014-02-06 18:15:00
12:35 PM,3.2,-5.8,66,30.48,10.0,West,15.0,20.7,N/A,,Clear,270,2014-02-06 18:35:00
12:55 PM,3.2,-7.6,61,30.47,10.0,WSW,17.3,-,N/A,,Clear,250,2014-02-06 18:55:00
1:15 PM,3.2,-5.8,66,30.46,10.0,West,16.1,21.9,N/A,,Clear,270,2014-02-06 19:15:00
1:35 PM,3.2,-4.0,72,30.45,10.0,West,16.1,23.0,N/A,,Partly Cloudy,270,2014-02-06 19:35:00
1:55 PM,3.2,-7.6,61,30.44,10.0,West,16.1,24.2,N/A,,Clear,270,2014-02-06 19:55:00
2:15 PM,3.2,-5.8,66,30.43,10.0,WNW,16.1,-,N/A,,Clear,290,2014-02-06 20:15:00
2:35 PM,5.0,-5.8,61,30.42,10.0,West,16.1,19.6,N/A,,Clear,260,2014-02-06 20:35:00
2:55 PM,6.8,-2.2,67,30.41,10.0,West,18.4,23.0,N/A,,Clear,270,2014-02-06 20:55:00
3:15 PM,6.8,-5.8,56,30.40,10.0,WSW,15.0,20.7,N/A,,Partly Cloudy,250,2014-02-06 21:15:00
3:35 PM,6.8,-5.8,56,30.40,10.0,West,12.7,-,N/A,,Clear,260,2014-02-06 21:35:00
3:55 PM,6.8,-5.8,56,30.39,10.0,West,13.8,-,N/A,,Partly Cloudy,270,2014-02-06 21:55:00
4:15 PM,6.8,-2.2,67,30.39,10.0,West,12.7,-,N/A,,Clear,280,2014-02-06 22:15:00
4:35 PM,6.8,-5.8,56,30.39,10.0,West,13.8,-,N/A,,Clear,280,2014-02-06 22:35:00
4:55 PM,6.8,-4.0,61,30.38,10.0,West,12.7,-,N/A,,Clear,280,2014-02-06 22:55:00
5:15 PM,6.8,-5.8,56,30.38,10.0,West,10.4,-,N/A,,Clear,280,2014-02-06 23:15:00
5:35 PM,5.0,-4.0,66,30.37,10.0,West,10.4,-,N/A,,Clear,280,2014-02-06 23:35:00
5:55 PM,3.2,-7.6,61,30.37,10.0,West,5.8,-,N/A,,Clear,280,2014-02-06 23:55:00
6:15 PM,1.4,-5.8,72,30.37,10.0,West,5.8,-,N/A,,Clear,280,2014-02-07 00:15:00
6:35 PM,1.4,-7.6,66,30.37,10.0,West,6.9,-,N/A,,Clear,270,2014-02-07 00:35:00
6:55 PM,1.4,-5.8,72,30.37,10.0,West,8.1,-,N/A,,Clear,280,2014-02-07 00:55:00
7:15 PM,1.4,-7.6,66,30.36,10.0,West,6.9,-,N/A,,Clear,280,2014-02-07 01:15:00
7:35 PM,-0.4,-7.6,72,30.35,10.0,West,8.1,-,N/A,,Clear,280,2014-02-07 01:35:00
7:55 PM,-0.4,-7.6,72,30.35,10.0,West,6.9,-,N/A,,Clear,260,2014-02-07 01:55:00
8:15 PM,-2.2,-9.4,71,30.35,10.0,SSW,5.8,-,N/A,,Clear,210,2014-02-07 02:15:00
8:35 PM,-0.4,-7.6,72,30.35,10.0,SW,4.6,-,N/A,,Clear,220,2014-02-07 02:35:00
8:55 PM,-0.4,-7.6,72,30.35,10.0,WSW,5.8,-,N/A,,Clear,240,2014-02-07 02:55:00
9:15 PM,-0.4,-7.6,72,30.35,10.0,SW,4.6,-,N/A,,Clear,230,2014-02-07 03:15:00
9:35 PM,-0.4,-9.4,66,30.35,10.0,SW,4.6,-,N/A,,Clear,230,2014-02-07 03:35:00
9:55 PM,-0.4,-11.2,60,30.34,10.0,WSW,3.5,-,N/A,,Clear,250,2014-02-07 03:55:00
10:15 PM,-2.2,-7.6,78,30.34,10.0,SW,4.6,-,N/A,,Clear,230,2014-02-07 04:15:00
10:35 PM,-2.2,-11.2,66,30.33,10.0,Calm,Calm,-,N/A,,Clear,0,2014-02-07 04:35:00
10:55 PM,-4.0,-5.8,92,30.33,10.0,SW,4.6,-,N/A,,Clear,220,2014-02-07 04:55:00
11:15 PM,-5.8,-14.8,65,30.32,10.0,SW,4.6,-,N/A,,Clear,220,2014-02-07 05:15:00
11:35 PM,-5.8,-5.8,100,30.31,10.0,SW,5.8,-,N/A,,Clear,230,2014-02-07 05:35:00
11:55 PM,-5.8,-14.8,65,30.31,10.0,SW,4.6,-,N/A,,Clear,230,2014-02-07 05:55:00